This demonstration page uses our WeatherBlox Daily Observations layout. Learn more.

Left ArrowRight Arrow

47.50024, -111.30081

Hourly Observations for April 10, 2022

Temp ( °F °C ) Dew Point ( °F °C ) Humidity (%) Winds ( mph kmh ) Pressure ( in mb ) Visibility ( mi km ) Precip ( " mm )
12:53 am 00:53 Cloudy 29 -1.7 13 -10.6 51 51 WSW 10 17 29.90 1012 10 16 0.00 0.00
1:53 am 01:53 Cloudy 30 -1.1 14 -10 51 51 SW 14 22 29.88 1012 10 16 0.00 0.00
2:53 am 02:53 Mostly Cloudy 30 -1.1 14 -10 51 51 WSW 12 19 29.88 1012 10 16 0.00 0.00
3:53 am 03:53 Mostly Cloudy 27 -2.8 14 -10 58 58 SW 12 19 29.88 1012 10 16 0.00 0.00
4:53 am 04:53 Cloudy 30 -1.1 13 -10.6 49 49 SW 12 19 29.86 1011 10 16 0.00 0.00
5:53 am 05:53 Cloudy 32 0 13 -10.6 45 45 SW 14 22 29.89 1012 10 16 0.00 0.00
6:53 am 06:53 Cloudy 32 0 15 -9.4 50 50 W 10 17 29.88 1012 10 16 0.00 0.00
7:53 am 07:53 Cloudy 32 0 14 -10 47 47 WNW 16 26 29.91 1013 10 16 0.00 0.00
8:53 am 08:53 Cloudy 31 -0.6 17 -8.3 56 56 VRB 7 11 29.92 1013 9 14 0.00 0.00
9:53 am 09:53 Cloudy 32 0 15 -9.4 50 50 W 12 19 29.91 1013 10 16 0.00 0.00
10:53 am 10:53 Cloudy 33 0.6 15 -9.4 47 47 NW 15 24 29.91 1013 10 16 0.00 0.00
11:53 am 11:53 Mostly Cloudy 36 2.2 20 -6.7 52 52 NW 16 26 29.89 1012 10 16 0.00 0.00
12:53 pm 12:53 Mostly Cloudy 36 2.2 13 -10.6 39 39 W 8 13 29.86 1011 10 16 0.00 0.00
1:53 pm 13:53 Partly Cloudy 40 4.4 11 -11.7 30 30 W 8 13 29.83 1010 10 16 0.00 0.00
2:53 pm 14:53 Cloudy 37 2.8 10 -12.2 33 33 Calm 29.83 1010 10 16 0.00 0.00
3:39 pm 15:39 Cloudy with Light Snow 33 0.6 25 -3.9 72 72 N 17 28 29.84 1011 3 4 0.00 0.00
3:51 pm 15:51 Mostly Cloudy with Light Snow 34 1 27 -3 75 75 NNE 18 30 29.83 1010 5 8 0.00 0.00
3:53 pm 15:53 Partly Cloudy with Scattered Snow Showers 34 1.1 26 -3.3 73 73 NNE 18 30 29.85 1011 7 11 0.00 0.00
4:53 pm 16:53 Cloudy with Light Snow 32 0 24 -4.4 73 73 N 16 26 29.87 1012 3 5 0.00 0.00
5:01 pm 17:01 Cloudy with Light Snow 31 -0.6 26 -3.3 82 82 N 13 20 29.87 1011 2 3 0.00 0.00
5:09 pm 17:09 Cloudy with Light Snow 33 0.6 26 -3.3 75 75 N 13 20 29.85 1011 7 11 0.00 0.00
5:33 pm 17:33 Partly Cloudy 34 1.1 24 -4.4 67 67 NE 16 26 29.84 1011 10 16 0.00 0.00
5:53 pm 17:53 Sunny 33 0.6 22 -5.6 64 64 NE 12 19 29.86 1011 10 16 0.00 0.00
6:53 pm 18:53 Mostly Sunny 32 0 23 -5 69 69 E 7 11 29.87 1011 10 16 0.00 0.00
7:53 pm 19:53 Sunny 30 -1.1 22 -5.6 72 72 SE 5 7 29.87 1012 10 16 0.00 0.00
8:53 pm 20:53 Clear 24 -4.4 20 -6.7 84 84 SSW 3 6 29.89 1012 10 16 0.00 0.00
9:53 pm 21:53 Mostly Clear 24 -4.4 19 -7.2 81 81 Calm 29.89 1012 10 16 0.00 0.00
10:53 pm 22:53 Clear 26 -3.3 21 -6.1 81 81 WNW 5 7 29.88 1012 10 16 0.00 0.00
11:53 pm 23:53 Clear 22 -5.6 20 -6.7 92 92 WNW 6 9 29.88 1012 10 16 0.00 0.00

Powered by AerisWeather